contact:dominique.lefevre@mio.osupytheas.fr, maurice.libes@osupytheas.fr, didier.mallarino@osupytheas.fr
Project:EMSO http://www.emso-fr.org/EMSO-France
Depth: 2436.0 m
Title:EMSO Ligure Ouest : Data MII capteur MICROCAT
DateTime_Computer,Latitude,Longitude,Temperature,Conductivity,Pressure,DateTime_Instrument
DateTime_Computer,Latitude,Longitude,degC,S m-1,dbar,DateTime_Instrument
2017-10-03T00:01:31Z,42.805,6.029,13.2958,4.60044,2471.866,2017-10-03T02:02:54Z
2017-10-03T00:03:06Z,42.805,6.029,13.2964,4.60045,2471.866,2017-10-03T02:04:29Z
2017-10-03T00:04:40Z,42.805,6.029,13.2967,4.60036,2471.866,2017-10-03T02:06:04Z
2017-10-03T00:06:15Z,42.805,6.029,13.2968,4.60035,2471.844,2017-10-03T02:07:39Z
2017-10-03T00:07:50Z,42.805,6.029,13.2968,4.60035,2471.866,2017-10-03T02:09:14Z
2017-10-03T00:09:25Z,42.805,6.029,13.2970,4.60017,2471.844,2017-10-03T02:10:48Z
2017-10-03T00:11:00Z,42.805,6.029,13.2959,4.60015,2471.844,2017-10-03T02:12:23Z
2017-10-03T00:12:35Z,42.805,6.029,13.2960,4.60028,2471.866,2017-10-03T02:13:58Z
2017-10-03T00:14:09Z,42.805,6.029,13.2967,4.60051,2471.889,2017-10-03T02:15:33Z
2017-10-03T00:15:44Z,42.805,6.029,13.2961,4.60029,2471.866,2017-10-03T02:17:08Z
2017-10-03T00:17:19Z,42.805,6.029,13.2971,4.60014,2471.852,2017-10-03T02:18:43Z
2017-10-03T00:18:54Z,42.805,6.029,13.2965,4.60023,2471.844,2017-10-03T02:20:17Z
2017-10-03T00:20:29Z,42.805,6.029,13.2964,4.60039,2471.889,2017-10-03T02:21:52Z
2017-10-03T00:22:04Z,42.805,6.029,13.2959,4.60031,2471.844,2017-10-03T02:23:27Z
2017-10-03T00:23:38Z,42.805,6.029,13.2961,4.60044,2471.866,2017-10-03T02:25:02Z
2017-10-03T00:25:13Z,42.805,6.029,13.2968,4.60052,2471.852,2017-10-03T02:26:37Z
2017-10-03T00:26:48Z,42.805,6.029,13.2967,4.60059,2471.866,2017-10-03T02:28:12Z
2017-10-03T00:28:23Z,42.805,6.029,13.2955,4.60038,2471.866,2017-10-03T02:29:46Z
2017-10-03T00:29:58Z,42.805,6.029,13.2958,4.60029,2471.821,2017-10-03T02:31:21Z
2017-10-03T00:31:33Z,42.805,6.029,13.2959,4.60049,2471.866,2017-10-03T02:32:56Z
2017-10-03T00:33:07Z,42.805,6.029,13.2966,4.60029,2471.866,2017-10-03T02:34:31Z
2017-10-03T00:34:42Z,42.805,6.029,13.2961,4.60041,2471.866,2017-10-03T02:36:06Z
2017-10-03T00:36:17Z,42.805,6.029,13.2956,4.60050,2471.889,2017-10-03T02:37:41Z
2017-10-03T00:37:52Z,42.805,6.029,13.2955,4.60066,2471.866,2017-10-03T02:39:15Z
2017-10-03T00:39:27Z,42.805,6.029,13.2950,4.60060,2471.866,2017-10-03T02:40:50Z
2017-10-03T00:41:02Z,42.805,6.029,13.2960,4.60041,2471.829,2017-10-03T02:42:25Z
2017-10-03T00:42:36Z,42.805,6.029,13.2965,4.60040,2471.889,2017-10-03T02:44:00Z
2017-10-03T00:44:11Z,42.805,6.029,13.2970,4.60049,2471.844,2017-10-03T02:45:35Z
2017-10-03T00:45:46Z,42.805,6.029,13.2970,4.60042,2471.874,2017-10-03T02:47:10Z
2017-10-03T00:47:21Z,42.805,6.029,13.2959,4.60052,2471.874,2017-10-03T02:48:44Z
2017-10-03T00:48:56Z,42.805,6.029,13.2952,4.60024,2471.866,2017-10-03T02:50:19Z
2017-10-03T00:50:30Z,42.805,6.029,13.2950,4.60046,2471.866,2017-10-03T02:51:54Z
2017-10-03T00:52:05Z,42.805,6.029,13.2955,4.60002,2471.866,2017-10-03T02:53:29Z
2017-10-03T00:53:40Z,42.805,6.029,13.2951,4.60012,2471.844,2017-10-03T02:55:04Z
2017-10-03T00:55:15Z,42.805,6.029,13.2957,4.60012,2471.866,2017-10-03T02:56:39Z
2017-10-03T00:56:50Z,42.805,6.029,13.2959,4.60031,2471.829,2017-10-03T02:58:13Z
2017-10-03T00:58:25Z,42.805,6.029,13.2962,4.60006,2471.866,2017-10-03T02:59:48Z
2017-10-03T01:00:00Z,42.805,6.029,13.2957,4.60033,2471.844,2017-10-03T03:01:23Z
2017-10-03T01:01:34Z,42.805,6.029,13.2951,4.60032,2471.866,2017-10-03T03:02:58Z
2017-10-03T01:03:09Z,42.805,6.029,13.2963,4.60007,2471.866,2017-10-03T03:04:33Z
2017-10-03T01:04:44Z,42.805,6.029,13.2945,4.60023,2471.829,2017-10-03T03:06:08Z
2017-10-03T01:06:19Z,42.805,6.029,13.2958,4.60019,2471.866,2017-10-03T03:07:42Z
2017-10-03T01:07:54Z,42.805,6.029,13.2957,4.60042,2471.874,2017-10-03T03:09:17Z
2017-10-03T01:09:28Z,42.805,6.029,13.2962,4.60000,2471.844,2017-10-03T03:10:52Z
2017-10-03T01:11:03Z,42.805,6.029,13.2963,4.59998,2471.829,2017-10-03T03:12:27Z
2017-10-03T01:12:38Z,42.805,6.029,13.2955,4.60013,2471.829,2017-10-03T03:14:02Z
2017-10-03T01:14:13Z,42.805,6.029,13.2956,4.60004,2471.866,2017-10-03T03:15:37Z
2017-10-03T01:15:48Z,42.805,6.029,13.2958,4.60006,2471.889,2017-10-03T03:17:11Z
2017-10-03T01:17:23Z,42.805,6.029,13.2963,4.60019,2471.806,2017-10-03T03:18:46Z
2017-10-03T01:18:57Z,42.805,6.029,13.2957,4.59999,2471.866,2017-10-03T03:20:21Z
2017-10-03T01:20:32Z,42.805,6.029,13.2951,4.60052,2471.889,2017-10-03T03:21:56Z
2017-10-03T01:22:07Z,42.805,6.029,13.2957,4.60034,2471.844,2017-10-03T03:23:31Z
2017-10-03T01:23:42Z,42.805,6.029,13.2958,4.60026,2471.881,2017-10-03T03:25:06Z
2017-10-03T01:25:17Z,42.805,6.029,13.2970,4.60015,2471.866,2017-10-03T03:26:40Z
2017-10-03T01:26:52Z,42.805,6.029,13.2971,4.60031,2471.866,2017-10-03T03:28:15Z
2017-10-03T01:28:26Z,42.805,6.029,13.2968,4.60019,2471.866,2017-10-03T03:29:50Z
2017-10-03T01:30:01Z,42.805,6.029,13.2960,4.60015,2471.866,2017-10-03T03:31:25Z
2017-10-03T01:31:36Z,42.805,6.029,13.2954,4.60018,2471.852,2017-10-03T03:33:00Z
2017-10-03T01:33:11Z,42.805,6.029,13.2955,4.60018,2471.866,2017-10-03T03:34:35Z
2017-10-03T01:34:46Z,42.805,6.029,13.2963,4.60019,2471.866,2017-10-03T03:36:09Z
2017-10-03T01:36:21Z,42.805,6.029,13.2959,4.60041,2471.852,2017-10-03T03:37:44Z
2017-10-03T01:37:55Z,42.805,6.029,13.2955,4.60021,2471.866,2017-10-03T03:39:19Z
2017-10-03T01:39:30Z,42.805,6.029,13.2964,4.60021,2471.866,2017-10-03T03:40:54Z
2017-10-03T01:41:05Z,42.805,6.029,13.2967,4.60023,2471.866,2017-10-03T03:42:29Z
2017-10-03T01:42:40Z,42.805,6.029,13.2960,4.60015,2471.829,2017-10-03T03:44:04Z
2017-10-03T01:44:15Z,42.805,6.029,13.2954,4.60025,2471.889,2017-10-03T03:45:38Z
2017-10-03T01:45:50Z,42.805,6.029,13.2958,4.60017,2471.889,2017-10-03T03:47:13Z
2017-10-03T01:47:24Z,42.805,6.029,13.2962,4.60011,2471.874,2017-10-03T03:48:48Z
2017-10-03T01:48:59Z,42.805,6.029,13.2971,4.60036,2471.844,2017-10-03T03:50:23Z
2017-10-03T01:50:34Z,42.805,6.029,13.2974,4.60053,2471.852,2017-10-03T03:51:58Z
2017-10-03T01:52:09Z,42.805,6.029,13.2966,4.60032,2471.889,2017-10-03T03:53:33Z
2017-10-03T01:53:44Z,42.805,6.029,13.2961,4.60037,2471.852,2017-10-03T03:55:07Z
2017-10-03T01:55:19Z,42.805,6.029,13.2968,4.60038,2471.889,2017-10-03T03:56:42Z
2017-10-03T01:56:53Z,42.805,6.029,13.2978,4.60046,2471.866,2017-10-03T03:58:17Z
2017-10-03T01:58:28Z,42.805,6.029,13.2964,4.60064,2471.852,2017-10-03T03:59:52Z
2017-10-03T02:00:03Z,42.805,6.029,13.2976,4.60025,2471.889,2017-10-03T04:01:27Z
2017-10-03T02:01:38Z,42.805,6.029,13.2973,4.59992,2471.889,2017-10-03T04:03:01Z
2017-10-03T02:03:13Z,42.805,6.029,13.2980,4.60053,2471.866,2017-10-03T04:04:36Z
2017-10-03T02:04:48Z,42.805,6.029,13.2984,4.60032,2471.889,2017-10-03T04:06:11Z
2017-10-03T02:06:22Z,42.805,6.029,13.2970,4.60063,2471.866,2017-10-03T04:07:46Z
2017-10-03T02:07:57Z,42.805,6.029,13.2981,4.60050,2471.844,2017-10-03T04:09:21Z
2017-10-03T02:09:32Z,42.805,6.029,13.2981,4.60035,2471.889,2017-10-03T04:10:56Z
2017-10-03T02:11:07Z,42.805,6.029,13.2969,4.60088,2471.912,2017-10-03T04:12:30Z
2017-10-03T02:12:42Z,42.805,6.029,13.2974,4.60088,2471.874,2017-10-03T04:14:05Z
2017-10-03T02:14:17Z,42.805,6.029,13.2976,4.60049,2471.866,2017-10-03T04:15:40Z
2017-10-03T02:15:51Z,42.805,6.029,13.2958,4.60072,2471.889,2017-10-03T04:17:15Z
2017-10-03T02:17:26Z,42.805,6.029,13.2979,4.60093,2471.874,2017-10-03T04:18:50Z
2017-10-03T02:19:01Z,42.805,6.029,13.2982,4.60066,2471.912,2017-10-03T04:20:25Z
2017-10-03T02:20:36Z,42.805,6.029,13.2946,4.60059,2471.912,2017-10-03T04:21:59Z
2017-10-03T02:22:11Z,42.805,6.029,13.2956,4.60080,2471.889,2017-10-03T04:23:34Z
2017-10-03T02:23:46Z,42.805,6.029,13.2966,4.60035,2471.912,2017-10-03T04:25:09Z
2017-10-03T02:25:20Z,42.805,6.029,13.2971,4.60024,2471.912,2017-10-03T04:26:44Z
2017-10-03T02:26:55Z,42.805,6.029,13.2973,4.60027,2471.912,2017-10-03T04:28:19Z
2017-10-03T02:28:30Z,42.805,6.029,13.2950,4.60018,2471.912,2017-10-03T04:29:54Z
2017-10-03T02:30:05Z,42.805,6.029,13.2975,4.60028,2471.889,2017-10-03T04:31:28Z
2017-10-03T02:31:40Z,42.805,6.029,13.2951,4.60032,2471.934,2017-10-03T04:33:03Z
2017-10-03T02:33:15Z,42.805,6.029,13.2961,4.60031,2471.897,2017-10-03T04:34:38Z
2017-10-03T02:34:49Z,42.805,6.029,13.2970,4.60041,2471.889,2017-10-03T04:36:13Z
2017-10-03T02:36:24Z,42.805,6.029,13.2959,4.60020,2471.874,2017-10-03T04:37:48Z
2017-10-03T02:37:59Z,42.805,6.029,13.2970,4.60021,2471.919,2017-10-03T04:39:23Z
2017-10-03T02:39:34Z,42.805,6.029,13.2958,4.60050,2471.912,2017-10-03T04:40:57Z
2017-10-03T02:41:09Z,42.805,6.029,13.2966,4.60038,2471.866,2017-10-03T04:42:32Z
2017-10-03T02:42:44Z,42.805,6.029,13.2970,4.60052,2471.912,2017-10-03T04:44:07Z
2017-10-03T02:44:18Z,42.805,6.029,13.2975,4.60065,2471.912,2017-10-03T04:45:42Z
2017-10-03T02:45:53Z,42.805,6.029,13.2958,4.60047,2471.912,2017-10-03T04:47:17Z
2017-10-03T02:47:28Z,42.805,6.029,13.2978,4.60083,2471.912,2017-10-03T04:48:52Z
2017-10-03T02:49:03Z,42.805,6.029,13.2975,4.60039,2471.912,2017-10-03T04:50:26Z
2017-10-03T02:50:38Z,42.805,6.029,13.2991,4.60057,2471.897,2017-10-03T04:52:01Z
2017-10-03T02:52:13Z,42.805,6.029,13.2990,4.60076,2471.912,2017-10-03T04:53:36Z
2017-10-03T02:53:47Z,42.805,6.029,13.3001,4.60063,2471.889,2017-10-03T04:55:11Z
2017-10-03T02:55:22Z,42.805,6.029,13.2967,4.60061,2471.889,2017-10-03T04:56:46Z
2017-10-03T02:56:57Z,42.805,6.029,13.2969,4.60023,2471.912,2017-10-03T04:58:21Z
2017-10-03T02:58:32Z,42.805,6.029,13.2968,4.60063,2471.934,2017-10-03T04:59:55Z
2017-10-03T03:00:07Z,42.805,6.029,13.2970,4.60059,2471.919,2017-10-03T05:01:30Z
2017-10-03T03:01:41Z,42.805,6.029,13.2977,4.60030,2471.934,2017-10-03T05:03:05Z
2017-10-03T03:03:16Z,42.805,6.029,13.2989,4.60091,2471.919,2017-10-03T05:04:40Z
2017-10-03T03:04:51Z,42.805,6.029,13.2986,4.60043,2471.912,2017-10-03T05:06:15Z
2017-10-03T03:06:26Z,42.805,6.029,13.2969,4.60069,2471.912,2017-10-03T05:07:50Z
2017-10-03T03:08:01Z,42.805,6.029,13.2969,4.60060,2471.919,2017-10-03T05:09:24Z
2017-10-03T03:09:36Z,42.805,6.029,13.2982,4.60077,2471.912,2017-10-03T05:10:59Z
2017-10-03T03:11:10Z,42.805,6.029,13.2979,4.60087,2471.904,2017-10-03T05:12:34Z
2017-10-03T03:12:45Z,42.805,6.029,13.2966,4.60079,2471.912,2017-10-03T05:14:09Z
2017-10-03T03:14:20Z,42.805,6.029,13.2977,4.60066,2471.934,2017-10-03T05:15:44Z
2017-10-03T03:15:55Z,42.805,6.029,13.2982,4.60054,2471.912,2017-10-03T05:17:19Z
2017-10-03T03:17:30Z,42.805,6.029,13.2975,4.60044,2471.934,2017-10-03T05:18:53Z
2017-10-03T03:19:05Z,42.805,6.029,13.2977,4.60063,2471.912,2017-10-03T05:20:28Z
2017-10-03T03:20:39Z,42.805,6.029,13.2987,4.60038,2471.912,2017-10-03T05:22:03Z
2017-10-03T03:22:14Z,42.805,6.029,13.2994,4.60049,2471.912,2017-10-03T05:23:38Z
2017-10-03T03:23:49Z,42.805,6.029,13.2991,4.60024,2471.934,2017-10-03T05:25:13Z
2017-10-03T03:25:24Z,42.805,6.029,13.2958,4.60054,2471.957,2017-10-03T05:26:48Z
2017-10-03T03:26:59Z,42.805,6.029,13.2963,4.60032,2471.949,2017-10-03T05:28:22Z
2017-10-03T03:28:34Z,42.805,6.029,13.2986,4.60071,2471.942,2017-10-03T05:29:57Z
2017-10-03T03:30:08Z,42.805,6.029,13.2986,4.60050,2471.934,2017-10-03T05:31:32Z
2017-10-03T03:31:43Z,42.805,6.029,13.2986,4.60000,2471.897,2017-10-03T05:33:07Z
2017-10-03T03:33:18Z,42.805,6.029,13.2966,4.60067,2471.934,2017-10-03T05:34:42Z
2017-10-03T03:34:53Z,42.805,6.029,13.2986,4.60075,2471.934,2017-10-03T05:36:17Z
2017-10-03T03:36:28Z,42.805,6.029,13.2994,4.59999,2471.934,2017-10-03T05:37:51Z
2017-10-03T03:38:03Z,42.805,6.029,13.2979,4.60038,2471.934,2017-10-03T05:39:26Z
2017-10-03T03:39:37Z,42.805,6.029,13.2993,4.60037,2471.912,2017-10-03T05:41:01Z
2017-10-03T03:41:12Z,42.805,6.029,13.2996,4.60054,2471.934,2017-10-03T05:42:36Z
2017-10-03T03:42:47Z,42.805,6.029,13.3000,4.60050,2471.934,2017-10-03T05:44:11Z
2017-10-03T03:44:22Z,42.805,6.029,13.3013,4.60042,2471.912,2017-10-03T05:45:46Z
2017-10-03T03:45:57Z,42.805,6.029,13.3016,4.60029,2471.912,2017-10-03T05:47:20Z
2017-10-03T03:47:32Z,42.805,6.029,13.3016,4.60046,2471.934,2017-10-03T05:48:55Z
2017-10-03T03:49:06Z,42.805,6.029,13.3008,4.60009,2471.934,2017-10-03T05:50:30Z
2017-10-03T03:50:41Z,42.805,6.029,13.2998,4.60007,2471.957,2017-10-03T05:52:05Z
2017-10-03T03:52:16Z,42.805,6.029,13.2980,4.60037,2471.919,2017-10-03T05:53:40Z
2017-10-03T03:53:51Z,42.805,6.029,13.2987,4.60027,2471.957,2017-10-03T05:55:15Z
2017-10-03T03:55:26Z,42.805,6.029,13.2998,4.59994,2471.919,2017-10-03T05:56:49Z
2017-10-03T03:57:01Z,42.805,6.029,13.3000,4.60008,2471.912,2017-10-03T05:58:24Z
2017-10-03T03:58:35Z,42.805,6.029,13.2990,4.60001,2471.971,2017-10-03T05:59:59Z
2017-10-03T04:00:10Z,42.805,6.029,13.2993,4.60040,2471.934,2017-10-03T06:01:34Z
2017-10-03T04:01:45Z,42.805,6.029,13.3001,4.60027,2471.942,2017-10-03T06:03:09Z
2017-10-03T04:03:20Z,42.805,6.029,13.2999,4.60006,2471.957,2017-10-03T06:04:44Z
2017-10-03T04:04:55Z,42.805,6.029,13.2993,4.60025,2471.942,2017-10-03T06:06:18Z
2017-10-03T04:06:30Z,42.805,6.029,13.2998,4.60032,2471.979,2017-10-03T06:07:53Z
2017-10-03T04:08:04Z,42.805,6.029,13.2994,4.60037,2471.957,2017-10-03T06:09:28Z
2017-10-03T04:09:39Z,42.805,6.029,13.2993,4.60054,2471.919,2017-10-03T06:11:03Z
2017-10-03T04:11:14Z,42.805,6.029,13.2988,4.60050,2471.942,2017-10-03T06:12:38Z
2017-10-03T04:12:49Z,42.805,6.029,13.2998,4.60020,2471.912,2017-10-03T06:14:12Z
2017-10-03T04:14:24Z,42.805,6.029,13.3004,4.60033,2471.934,2017-10-03T06:15:47Z
2017-10-03T04:15:59Z,42.805,6.029,13.3017,4.60029,2471.942,2017-10-03T06:17:22Z
2017-10-03T04:17:33Z,42.805,6.029,13.3034,4.60025,2471.942,2017-10-03T06:18:57Z
2017-10-03T04:19:08Z,42.805,6.029,13.3018,4.60023,2471.957,2017-10-03T06:20:32Z
2017-10-03T04:20:43Z,42.805,6.029,13.3005,4.60026,2471.987,2017-10-03T06:22:07Z
2017-10-03T04:22:18Z,42.805,6.029,13.3017,4.60018,2471.942,2017-10-03T06:23:41Z
2017-10-03T04:23:53Z,42.805,6.029,13.3014,4.59998,2471.957,2017-10-03T06:25:16Z
2017-10-03T04:25:28Z,42.805,6.029,13.3011,4.60012,2471.957,2017-10-03T06:26:51Z
2017-10-03T04:27:02Z,42.805,6.029,13.3016,4.60011,2471.957,2017-10-03T06:28:26Z
2017-10-03T04:28:37Z,42.805,6.029,13.3009,4.59992,2471.979,2017-10-03T06:30:01Z
2017-10-03T04:30:12Z,42.805,6.029,13.2984,4.60000,2471.957,2017-10-03T06:31:36Z
2017-10-03T04:31:47Z,42.805,6.029,13.2988,4.60015,2471.942,2017-10-03T06:33:10Z
2017-10-03T04:33:22Z,42.805,6.029,13.3023,4.60031,2471.979,2017-10-03T06:34:45Z
2017-10-03T04:34:57Z,42.805,6.029,13.3019,4.60011,2471.957,2017-10-03T06:36:20Z
2017-10-03T04:36:31Z,42.805,6.029,13.3008,4.60037,2471.957,2017-10-03T06:37:55Z
2017-10-03T04:38:06Z,42.805,6.029,13.2984,4.60030,2471.957,2017-10-03T06:39:30Z
2017-10-03T04:39:41Z,42.805,6.029,13.2975,4.60029,2471.979,2017-10-03T06:41:05Z
2017-10-03T04:41:16Z,42.805,6.029,13.2986,4.60049,2471.942,2017-10-03T06:42:39Z
2017-10-03T04:42:51Z,42.805,6.029,13.2995,4.60035,2471.979,2017-10-03T06:44:14Z
2017-10-03T04:44:26Z,42.805,6.029,13.2984,4.60014,2471.979,2017-10-03T06:45:49Z
2017-10-03T04:46:00Z,42.805,6.029,13.2981,4.59987,2472.002,2017-10-03T06:47:24Z
2017-10-03T04:47:35Z,42.805,6.029,13.2973,4.60015,2471.957,2017-10-03T06:48:59Z
2017-10-03T04:49:10Z,42.805,6.029,13.2964,4.60009,2471.979,2017-10-03T06:50:34Z
2017-10-03T04:50:45Z,42.805,6.029,13.2961,4.60014,2471.979,2017-10-03T06:52:08Z
2017-10-03T04:52:20Z,42.805,6.029,13.2968,4.60013,2472.002,2017-10-03T06:53:43Z
2017-10-03T04:53:55Z,42.805,6.029,13.2957,4.59996,2471.934,2017-10-03T06:55:18Z
2017-10-03T04:55:29Z,42.805,6.029,13.2961,4.59998,2471.957,2017-10-03T06:56:53Z
2017-10-03T04:57:04Z,42.805,6.029,13.2963,4.59998,2471.979,2017-10-03T06:58:28Z
2017-10-03T04:58:39Z,42.805,6.029,13.2973,4.59995,2471.957,2017-10-03T07:00:03Z
2017-10-03T05:00:14Z,42.805,6.029,13.2968,4.59978,2471.979,2017-10-03T07:01:37Z
2017-10-03T05:01:49Z,42.805,6.029,13.3010,4.59983,2471.987,2017-10-03T07:03:12Z
2017-10-03T05:03:23Z,42.805,6.029,13.2964,4.60001,2471.979,2017-10-03T07:04:47Z
2017-10-03T05:04:58Z,42.805,6.029,13.2957,4.60003,2471.979,2017-10-03T07:06:22Z
2017-10-03T05:06:33Z,42.805,6.029,13.2954,4.59994,2471.964,2017-10-03T07:07:57Z
2017-10-03T05:08:08Z,42.805,6.029,13.2949,4.60026,2471.957,2017-10-03T07:09:32Z
2017-10-03T05:09:43Z,42.805,6.029,13.2981,4.60021,2471.957,2017-10-03T07:11:06Z
2017-10-03T05:11:18Z,42.805,6.029,13.3036,4.59986,2471.957,2017-10-03T07:12:41Z
2017-10-03T05:12:52Z,42.805,6.029,13.3021,4.59986,2471.957,2017-10-03T07:14:16Z
2017-10-03T05:14:27Z,42.805,6.029,13.3012,4.59978,2471.964,2017-10-03T07:15:51Z
2017-10-03T05:16:02Z,42.805,6.029,13.2979,4.59981,2471.957,2017-10-03T07:17:26Z
2017-10-03T05:17:37Z,42.805,6.029,13.3001,4.60037,2471.979,2017-10-03T07:19:01Z
2017-10-03T05:19:12Z,42.805,6.029,13.2988,4.60015,2471.957,2017-10-03T07:20:35Z
2017-10-03T05:20:47Z,42.805,6.029,13.2986,4.59993,2471.964,2017-10-03T07:22:10Z
2017-10-03T05:22:21Z,42.805,6.029,13.3001,4.59987,2471.979,2017-10-03T07:23:45Z
2017-10-03T05:23:56Z,42.805,6.029,13.2970,4.60027,2471.979,2017-10-03T07:25:20Z
2017-10-03T05:25:31Z,42.805,6.029,13.2978,4.59990,2471.979,2017-10-03T07:26:55Z
2017-10-03T05:27:06Z,42.805,6.029,13.2971,4.60015,2471.934,2017-10-03T07:28:30Z
2017-10-03T05:28:41Z,42.805,6.029,13.2968,4.59998,2471.957,2017-10-03T07:30:04Z
2017-10-03T05:30:16Z,42.805,6.029,13.2980,4.60011,2471.979,2017-10-03T07:31:39Z
2017-10-03T05:31:50Z,42.805,6.029,13.2993,4.59998,2471.957,2017-10-03T07:33:14Z
2017-10-03T05:33:25Z,42.805,6.029,13.2965,4.59990,2471.979,2017-10-03T07:34:49Z
2017-10-03T05:35:00Z,42.805,6.029,13.2982,4.59998,2471.979,2017-10-03T07:36:24Z
2017-10-03T05:36:35Z,42.805,6.029,13.2954,4.60008,2471.979,2017-10-03T07:37:59Z
2017-10-03T05:38:10Z,42.805,6.029,13.2958,4.60041,2471.957,2017-10-03T07:39:33Z
2017-10-03T05:39:45Z,42.805,6.029,13.2953,4.59998,2471.957,2017-10-03T07:41:08Z
2017-10-03T05:41:19Z,42.805,6.029,13.2958,4.60005,2471.979,2017-10-03T07:42:43Z
2017-10-03T05:42:54Z,42.805,6.029,13.2955,4.59999,2471.979,2017-10-03T07:44:18Z
2017-10-03T05:44:29Z,42.805,6.029,13.2998,4.59998,2471.957,2017-10-03T07:45:53Z
2017-10-03T05:46:04Z,42.805,6.029,13.2968,4.59995,2471.957,2017-10-03T07:47:28Z
2017-10-03T05:47:39Z,42.805,6.029,13.2963,4.59995,2471.957,2017-10-03T07:49:02Z
2017-10-03T05:49:14Z,42.805,6.029,13.2961,4.60029,2471.957,2017-10-03T07:50:37Z
2017-10-03T05:50:48Z,42.805,6.029,13.2965,4.60004,2471.957,2017-10-03T07:52:12Z
2017-10-03T05:52:23Z,42.805,6.029,13.3025,4.60015,2471.987,2017-10-03T07:53:47Z
2017-10-03T05:53:58Z,42.805,6.029,13.3008,4.60008,2471.964,2017-10-03T07:55:22Z
2017-10-03T05:55:33Z,42.805,6.029,13.3004,4.60020,2471.957,2017-10-03T07:56:57Z
2017-10-03T05:57:08Z,42.805,6.029,13.3004,4.60016,2471.979,2017-10-03T07:58:31Z
2017-10-03T05:58:43Z,42.805,6.029,13.3015,4.60056,2471.979,2017-10-03T08:00:06Z
2017-10-03T06:00:17Z,42.805,6.029,13.2961,4.60012,2471.957,2017-10-03T08:01:41Z
2017-10-03T06:01:52Z,42.805,6.029,13.2962,4.60001,2471.934,2017-10-03T08:03:16Z
2017-10-03T06:03:27Z,42.805,6.029,13.2963,4.59992,2471.919,2017-10-03T08:04:51Z
2017-10-03T06:05:02Z,42.805,6.029,13.2958,4.59987,2471.979,2017-10-03T08:06:25Z
2017-10-03T06:06:37Z,42.805,6.029,13.2982,4.59992,2471.964,2017-10-03T08:08:00Z
2017-10-03T06:08:12Z,42.805,6.029,13.2983,4.59995,2471.957,2017-10-03T08:09:35Z
2017-10-03T06:09:46Z,42.805,6.029,13.2977,4.59978,2471.942,2017-10-03T08:11:10Z
2017-10-03T06:11:21Z,42.805,6.029,13.2969,4.59980,2471.979,2017-10-03T08:12:45Z
2017-10-03T06:12:56Z,42.805,6.029,13.2950,4.59983,2471.964,2017-10-03T08:14:20Z
2017-10-03T06:14:31Z,42.805,6.029,13.2958,4.59993,2472.002,2017-10-03T08:15:54Z
2017-10-03T06:16:06Z,42.805,6.029,13.2964,4.59992,2471.934,2017-10-03T08:17:29Z
2017-10-03T06:17:41Z,42.805,6.029,13.2958,4.59981,2471.934,2017-10-03T08:19:04Z
2017-10-03T06:19:15Z,42.805,6.029,13.2971,4.59981,2471.957,2017-10-03T08:20:39Z
2017-10-03T06:20:50Z,42.805,6.029,13.2947,4.59995,2471.934,2017-10-03T08:22:14Z
2017-10-03T06:22:25Z,42.805,6.029,13.2948,4.60012,2471.964,2017-10-03T08:23:49Z
2017-10-03T06:24:00Z,42.805,6.029,13.2950,4.60004,2471.979,2017-10-03T08:25:23Z
2017-10-03T06:25:35Z,42.805,6.029,13.2975,4.60023,2471.934,2017-10-03T08:26:58Z
2017-10-03T06:27:10Z,42.805,6.029,13.2979,4.60006,2471.942,2017-10-03T08:28:33Z
2017-10-03T06:28:44Z,42.805,6.029,13.2995,4.59995,2471.979,2017-10-03T08:30:08Z
2017-10-03T06:30:19Z,42.805,6.029,13.2976,4.59988,2471.957,2017-10-03T08:31:43Z
2017-10-03T06:31:54Z,42.805,6.029,13.2972,4.59983,2471.934,2017-10-03T08:33:18Z
2017-10-03T06:33:29Z,42.805,6.029,13.2960,4.60001,2471.957,2017-10-03T08:34:52Z
2017-10-03T06:35:04Z,42.805,6.029,13.2964,4.60000,2471.979,2017-10-03T08:36:27Z
2017-10-03T06:36:38Z,42.805,6.029,13.3021,4.59987,2471.957,2017-10-03T08:38:02Z
2017-10-03T06:38:13Z,42.805,6.029,13.2971,4.59978,2471.957,2017-10-03T08:39:37Z
2017-10-03T06:39:48Z,42.805,6.029,13.2954,4.60035,2471.979,2017-10-03T08:41:12Z
2017-10-03T06:41:23Z,42.805,6.029,13.2963,4.60007,2471.979,2017-10-03T08:42:47Z
2017-10-03T06:42:58Z,42.805,6.029,13.2966,4.59998,2471.979,2017-10-03T08:44:21Z
2017-10-03T06:44:33Z,42.805,6.029,13.2964,4.59992,2471.964,2017-10-03T08:45:56Z
2017-10-03T06:46:08Z,42.805,6.029,13.2974,4.60021,2471.964,2017-10-03T08:47:31Z
2017-10-03T06:47:42Z,42.805,6.029,13.2976,4.59992,2471.957,2017-10-03T08:49:06Z
2017-10-03T06:49:17Z,42.805,6.029,13.2988,4.60009,2471.979,2017-10-03T08:50:41Z
2017-10-03T06:50:52Z,42.805,6.029,13.2978,4.60000,2471.979,2017-10-03T08:52:16Z
2017-10-03T06:52:27Z,42.805,6.029,13.2982,4.59988,2471.919,2017-10-03T08:53:50Z
2017-10-03T06:54:02Z,42.805,6.029,13.2970,4.59987,2472.002,2017-10-03T08:55:25Z
2017-10-03T06:55:36Z,42.805,6.029,13.2978,4.59983,2471.979,2017-10-03T08:57:00Z
2017-10-03T06:57:11Z,42.805,6.029,13.2986,4.60002,2471.942,2017-10-03T08:58:35Z
2017-10-03T06:58:46Z,42.805,6.029,13.3008,4.59989,2471.957,2017-10-03T09:00:10Z
2017-10-03T07:00:21Z,42.805,6.029,13.2988,4.60038,2471.957,2017-10-03T09:01:45Z
2017-10-03T07:01:56Z,42.805,6.029,13.2979,4.59980,2471.957,2017-10-03T09:03:19Z
2017-10-03T07:03:31Z,42.805,6.029,13.2982,4.59988,2471.957,2017-10-03T09:04:54Z
2017-10-03T07:05:05Z,42.805,6.029,13.3015,4.59997,2471.934,2017-10-03T09:06:29Z
2017-10-03T07:06:40Z,42.805,6.029,13.2996,4.59981,2471.957,2017-10-03T09:08:04Z
2017-10-03T07:08:15Z,42.805,6.029,13.2964,4.60009,2471.957,2017-10-03T09:09:39Z
2017-10-03T07:09:50Z,42.805,6.029,13.2988,4.59978,2471.934,2017-10-03T09:11:14Z
2017-10-03T07:11:25Z,42.805,6.029,13.2958,4.59987,2471.957,2017-10-03T09:12:48Z
2017-10-03T07:13:00Z,42.805,6.029,13.2954,4.59992,2471.957,2017-10-03T09:14:23Z
2017-10-03T07:14:34Z,42.805,6.029,13.2978,4.60023,2471.957,2017-10-03T09:15:58Z
2017-10-03T07:16:09Z,42.805,6.029,13.2954,4.59994,2471.957,2017-10-03T09:17:33Z
2017-10-03T07:17:44Z,42.805,6.029,13.2995,4.59992,2471.957,2017-10-03T09:19:08Z
2017-10-03T07:19:19Z,42.805,6.029,13.3026,4.59992,2471.934,2017-10-03T09:20:43Z
2017-10-03T07:20:54Z,42.805,6.029,13.2975,4.60003,2471.957,2017-10-03T09:22:17Z
2017-10-03T07:22:29Z,42.805,6.029,13.2958,4.60000,2471.919,2017-10-03T09:23:52Z
2017-10-03T07:24:03Z,42.805,6.029,13.3001,4.59998,2471.957,2017-10-03T09:25:27Z
2017-10-03T07:25:38Z,42.805,6.029,13.2990,4.60008,2471.957,2017-10-03T09:27:02Z
2017-10-03T07:27:13Z,42.805,6.029,13.3004,4.60007,2471.934,2017-10-03T09:28:37Z
2017-10-03T07:28:48Z,42.805,6.029,13.2988,4.60027,2471.919,2017-10-03T09:30:12Z
2017-10-03T07:30:23Z,42.805,6.029,13.2978,4.60012,2471.934,2017-10-03T09:31:46Z
2017-10-03T07:31:58Z,42.805,6.029,13.2968,4.59983,2471.934,2017-10-03T09:33:21Z
2017-10-03T07:33:32Z,42.805,6.029,13.2963,4.59998,2471.919,2017-10-03T09:34:56Z
2017-10-03T07:35:07Z,42.805,6.029,13.2958,4.60007,2471.957,2017-10-03T09:36:31Z
2017-10-03T07:36:42Z,42.805,6.029,13.2966,4.59995,2471.934,2017-10-03T09:38:06Z
2017-10-03T07:38:17Z,42.805,6.029,13.2993,4.60057,2471.971,2017-10-03T09:39:41Z
2017-10-03T07:39:52Z,42.805,6.029,13.2951,4.60006,2471.934,2017-10-03T09:41:15Z
2017-10-03T07:41:27Z,42.805,6.029,13.2972,4.60018,2471.934,2017-10-03T09:42:50Z
2017-10-03T07:43:01Z,42.805,6.029,13.2978,4.59994,2471.934,2017-10-03T09:44:25Z
2017-10-03T07:44:36Z,42.805,6.029,13.2982,4.59987,2471.912,2017-10-03T09:46:00Z
2017-10-03T07:46:11Z,42.805,6.029,13.2991,4.59999,2471.919,2017-10-03T09:47:35Z